Weather History for Montrose, CO

Change the Weather History Date:

Tuesday, October 5, 2010

  Actual Average Record
Temperature  
Mean Temperature 62 °F 54 °F  
Max Temperature 77 °F 70 °F 82 °F (1999)
Min Temperature 50 °F 39 °F 31 °F (2013)
Degree Days  
Heating Degree Days 2 11  
Month to date heating degree days 49  
Since 1 July heating degree days 176  
Cooling Degree Days 0 0  
Month to date cooling degree days 0  
Year to date cooling degree days 643  
Growing Degree Days 12 (Base 50)    
Moisture  
Dew Point 40 °F    
Average Humidity 50    
Maximum Humidity 77    
Minimum Humidity 22    
Precipitation  
Precipitation 0.00 in 0.06 in 0.24 in (2006)
Month to date precipitation 0.30  
Year to date precipitation 8.95  
Sea Level Pressure  
Sea Level Pressure 30.06 in    
Wind  
Wind Speed 5 mph (ENE)    
Max Wind Speed 14 mph    
Max Gust Speed -    
Visibility 10 miles    
Events Rain    
T = Trace of Precipitation, MM = Missing Value Source: NWS Daily Summary

Daily Weather History Graph

Daily Weather History Graph

Search for Another Location

Airport:

Trip Planner

Search our weather history database for the weather conditions in past years. The results will help you decide how hot, cold, wet, or windy it might be!

Date:

Astronomy

Oct. 05, 2010 Rise Set
Actual Time 7:11 AM MDT 6:48 PM MDT
Civil Twilight 6:44 AM MDT 7:14 PM MDT
Nautical Twilight 6:13 AM MDT 7:45 PM MDT
Astronomical Twilight 5:43 AM MDT 8:16 PM MDT
Moon 4:38 AM MDT (10/5) 5:19 PM MDT (10/5)
Length of Visible Light 12h 29m
Length of Day
11h 37m
Waning Crescent, 6% of the Moon is Illuminated
Oct 5
Waning Crescent
Oct 7
New
Oct 14
First Quarter
Oct 22
Full
Oct 30
Last Quarter

Hourly Weather History & Observations

Time (MDT) Temp. Dew Point Humidity Pressure Visibility Wind Dir Wind Speed Gust Speed Precip Events Conditions
12:53 AM 51.1 °F 43.0 °F 74% 30.01 in 10.0 mi SSE 6.9 mph - N/A   Scattered Clouds
1:53 AM 50.0 °F 43.0 °F 77% 30.02 in 10.0 mi South 9.2 mph - 0.00 in   Scattered Clouds
2:53 AM 52.0 °F 42.1 °F 69% 30.02 in 10.0 mi Calm Calm - N/A   Mostly Cloudy
3:53 AM 52.0 °F 41.0 °F 66% 30.00 in 10.0 mi Calm Calm - N/A   Mostly Cloudy
4:53 AM 51.1 °F 42.1 °F 71% 30.01 in 10.0 mi Calm Calm - N/A   Mostly Cloudy
5:53 AM 51.1 °F 42.1 °F 71% 30.06 in 10.0 mi East 3.5 mph - N/A   Overcast
6:53 AM 52.0 °F 43.0 °F 71% 30.09 in 10.0 mi ENE 3.5 mph - N/A   Overcast
7:53 AM 53.1 °F 42.1 °F 66% 30.12 in 10.0 mi SSE 5.8 mph - 0.00 in Rain Light Rain
8:53 AM 55.0 °F 43.0 °F 64% 30.13 in 10.0 mi SE 9.2 mph - 0.00 in   Mostly Cloudy
9:53 AM 59.0 °F 45.0 °F 60% 30.14 in 10.0 mi Calm Calm - N/A   Partly Cloudy
10:53 AM 63.0 °F 44.1 °F 50% 30.11 in 10.0 mi North 9.2 mph - N/A   Partly Cloudy
11:53 AM 66.9 °F 43.0 °F 42% 30.10 in 10.0 mi North 9.2 mph - N/A   Clear
12:53 PM 72.0 °F 39.0 °F 30% 30.06 in 10.0 mi North 6.9 mph - N/A   Clear
1:53 PM 73.9 °F 34.0 °F 23% 30.04 in 10.0 mi WNW 5.8 mph - N/A   Clear
2:53 PM 75.0 °F 34.0 °F 22% 30.00 in 10.0 mi NW 4.6 mph - N/A   Clear
3:53 PM 75.0 °F 33.1 °F 22% 29.99 in 10.0 mi North 5.8 mph - N/A   Clear
4:53 PM 75.0 °F 35.1 °F 23% 29.99 in 10.0 mi NNW 10.4 mph - N/A   Partly Cloudy
5:53 PM 73.0 °F 36.0 °F 26% 29.99 in 10.0 mi NNW 5.8 mph - N/A   Clear
6:53 PM 68.0 °F 39.0 °F 35% 30.02 in 10.0 mi West 4.6 mph - N/A   Clear
7:53 PM 62.1 °F 39.9 °F 44% 30.05 in 10.0 mi ESE 3.5 mph - N/A   Clear
8:53 PM 61.0 °F 39.9 °F 46% 30.08 in 10.0 mi ESE 5.8 mph - N/A   Partly Cloudy
9:53 PM 63.0 °F 39.9 °F 43% 30.09 in 10.0 mi SSE 13.8 mph - N/A   Mostly Cloudy
10:53 PM 61.0 °F 39.9 °F 46% 30.10 in 10.0 mi SSE 8.1 mph - N/A   Scattered Clouds
11:53 PM 61.0 °F 46.0 °F 58% 30.11 in 10.0 mi ESE 5.8 mph - 0.00 in Rain Light Rain